Doha, Qatar

7:33 AM +03 on November 20, 2017 (GMT +0300)
Doha International

Weather History for OTBD - December, 2012

Change the Weather History Date:

Friday, December 7, 2012

  Actual Average Record
Temperature  
Mean Temperature 74 °F -  
Max Temperature 80 °F 74 °F 82 °F (2001)
Min Temperature 67 °F 58 °F 57 °F (2015)
Cooling Degree Days 8    
Growing Degree Days 24 (Base 50)    
Moisture  
Dew Point 66 °F    
Average Humidity 76    
Maximum Humidity 88    
Minimum Humidity 51    
Precipitation  
Precipitation 0.00 in 0.02 in - ()
Sea Level Pressure  
Sea Level Pressure 30.07 in    
Wind  
Wind Speed 2 mph ()    
Max Wind Speed 7 mph    
Max Gust Speed -    
Visibility 5.2 miles    
Events      
Averages and records for this station are not official NWS values.
T = Trace of Precipitation, MM = Missing Value Source: Averaged Metar Reports

Daily Weather History Graph

Daily Weather History Graph

Search for Another Location

Airport or City:

Trip Planner

Search our weather history database for the weather conditions in past years. The results will help you decide how hot, cold, wet, or windy it might be!

Date:

Astronomy

Dec. 07, 2012 Rise Set
Actual Time 6:06 AM +03 4:43 PM +03
Civil Twilight 5:41 AM +03 5:08 PM +03
Nautical Twilight 5:13 AM +03 5:37 PM +03
Astronomical Twilight 4:45 AM +03 6:05 PM +03
Moon No Moon Rise 11:56 AM +03 (12/7)
Length of Visible Light 11h 27m
Length of Day
10h 37m
Last Quarter, 42% of the Moon is Illuminated
Dec 7
Last Quarter
Dec 13
New
Dec 20
First Quarter
Dec 28
Full
Jan 5
Last Quarter

Hourly Weather History & Observations

Time (+03) Temp. Heat Index Dew Point Humidity Pressure Visibility Wind Dir Wind Speed Gust Speed Precip Events Conditions
12:00 AM 71.6 °F - 68.0 °F 88% 30.04 in 5.0 mi Calm Calm - N/A   Unknown
1:00 AM 73.4 °F - 69.8 °F 88% 30.04 in - Calm Calm - N/A   Clear
2:00 AM 71.6 °F - 68.0 °F 88% 30.04 in - ESE 2.3 mph - N/A   Clear
3:00 AM 71 °F - 68 °F 86% 30.04 in 5 mi Calm Calm - -   Haze
3:00 AM 71.6 °F - 68.0 °F 88% 30.04 in 5.0 mi Calm Calm - N/A   Unknown
4:00 AM 69.8 °F - 66.2 °F 88% 30.04 in 4.3 mi Calm Calm - N/A   Unknown
5:00 AM 69.8 °F - 66.2 °F 88% 30.04 in 3.7 mi SW 2.3 mph - N/A   Unknown
6:00 AM 69.8 °F - 64.4 °F 83% 30.06 in 3.1 mi North 3.5 mph - N/A   Haze
7:00 AM 69.8 °F - 64.4 °F 83% 30.09 in 3.7 mi Variable 2.3 mph - N/A   Unknown
8:00 AM 73.4 °F - 66.2 °F 78% 30.09 in 5.0 mi Variable 2.3 mph - N/A   Unknown
9:00 AM 76 °F - 65 °F 62% 30.14 in 5 mi North 4.6 mph - -   Haze
9:00 AM 75.2 °F - 66.2 °F 73% 30.12 in 5.0 mi North 4.6 mph - N/A   Unknown
10:00 AM 77.0 °F - 64.4 °F 65% 30.12 in 6.2 mi North 4.6 mph - N/A   Partly Cloudy
11:00 AM 78.8 °F - 64.4 °F 61% 30.09 in 6.2 mi NE 5.8 mph - N/A   Partly Cloudy
12:00 PM 80.6 °F 82.3 °F 64.4 °F 58% 30.06 in 6.2 mi East 5.8 mph - N/A   Partly Cloudy
1:00 PM 78.8 °F - 62.6 °F 57% 30.04 in 6.2 mi NE 5.8 mph - N/A   Partly Cloudy
3:00 PM 79 °F - 64 °F 51% 30.06 in 6 mi NE 6.9 mph - -   Scattered Clouds
3:00 PM 78.8 °F - 64.4 °F 61% 30.04 in 6.2 mi NE 6.9 mph - N/A   Partly Cloudy
4:00 PM 77.0 °F - 66.2 °F 69% 30.04 in 5.6 mi ENE 6.9 mph - N/A   Unknown
5:00 PM 75.2 °F - 66.2 °F 73% 30.06 in 5.6 mi ENE 4.6 mph - N/A   Unknown
6:00 PM 75.2 °F - 68.0 °F 78% 30.06 in 5.0 mi Variable 2.3 mph - N/A   Unknown
7:00 PM 75.2 °F - 68.0 °F 78% 30.06 in 5.0 mi East 4.6 mph - N/A   Unknown
8:00 PM 73.4 °F - 68.0 °F 83% 30.09 in 5.0 mi Calm Calm - N/A   Unknown
9:00 PM 73 °F - 67 °F 77% 30.09 in 6 mi NW 6.9 mph - -   Haze
9:00 PM 73.4 °F - 68.0 °F 83% 30.09 in 5.6 mi NW 6.9 mph - N/A   Unknown
10:00 PM 73.4 °F - 68.0 °F 83% 30.06 in 5.0 mi North 4.6 mph - N/A   Partly Cloudy
11:00 PM 71.6 °F - 66.2 °F 83% 30.06 in 5.0 mi North 4.6 mph - N/A   Partly Cloudy